"Pseudo-MPEC" for P11pnTc

Created 2021 Nov 26 18:07:10 UT using Find_Orb

Click here for an explanation of pseudo-MPECs

 
 Astrometry: 
     P11pnTc  C2021 11 258nM\Astrometry_SUGredacted;Z3msH)J;UqQbJ!`;I$dx5#F9+F51
     P11pnTc  C2021 11 25oHSP[YC.[;l_0!VbcZcJuf(:eclickq=e40q)X$Ym]VVrLHW\I4DF51
     P11pnTc  C2021 11 25fH.6xts89j/%$?PbQTAxkRTcXV@:Y._FWG6Uu/GiVHXOx@ZRXwngF51
     P11pnTc  C2021 11 25`LC@#5Y#F9UVIE#Xm[aEAwytff4ldhere:2A)lDOL]^\``'crNE3F51
     P11pnTc  C2021 11 25sGTJ?.D+N2w8McY0U#:\;xU9?1NdyHeSLfor^aKi6]@(0)bA9?[OF51
     P11pnTc  C2021 11 2543GjLG/8vM7explanationxlDJP,Osv3mXCv@i:SrNg@rmg[+=.BF51

Station data:
(F51) Pan-STARRS 1, Haleakala  (N20.707235 W156.255910)  US/Hawaii.
   Observers N. Primak, A. Schultz, S. Watters, J. Thiel, T. Goggia. Measurer
   PS1 Science Consortium. 1.8-m Ritchey-Chrétien + CCD.

Orbital elements:  P11pnTc
   Perihelion 2021 Aug 14.127508 +/- 101.006 TT =  3:03:36 (JD 2459440.627508)
Epoch 2021 Nov 26.0 TT = JDT 2459544.5   Earth MOID: 0.7371   AutoNEOCP
M  40.70234561 +/- 24.437352        (J2000 ecliptic)
n   0.39184912 +/- 0.247086         Peri.  266.77311 +/- 86.428989
a   1.84951045 +/- 0.777475         Node   102.46901 +/- 37.626237
e   0.1261851 +/- 0.270682          Incl.   23.77566 +/- 18.531926
P   2.52/918.70d           H 19.5   G  0.15   U 11.8  SR
q 1.61612965 +/- 0.617158    Q 2.08289126 +/- 51.444
From 6 observations 2021 Nov. 25 (3.6 hr); mean residual 0".06
Residuals in arcseconds: 
211125 F51  .05+  .10+    211125 F51  .07-  .01+    211125 F51  .08+  .01+    
211125 F51  .03-  .10-    211125 F51  .05+  .02-    211125 F51  .07-  .00     

Ephemerides (geocentric):
Date (UTC) HH   RA              Dec         delta   r     elong  mag " sig PA
---- -- -- --  -------------   -----------  ------ ------ -----  --- ---- ---
2021 11 26 18  04 26 41.657   -13 59 06.27  .78313 1.6880 144.7 21.1 97.5   0
2021 11 26 19  04 26 37.783   -13 58 23.50  .78314 1.6881 144.8 21.1  101   1
2021 11 26 20  04 26 33.909   -13 57 40.66  .78315 1.6881 144.8 21.1  104   1
2021 11 26 21  04 26 30.035   -13 56 57.75  .78316 1.6882 144.8 21.1  107   1
2021 11 26 22  04 26 26.160   -13 56 14.78  .78317 1.6882 144.8 21.1  111   1
2021 11 26 23  04 26 22.286   -13 55 31.74  .78318 1.6883 144.8 21.1  114   2
2021 11 27 00  04 26 18.412   -13 54 48.64  .78319 1.6883 144.8 21.1  118   2
2021 11 27 01  04 26 14.537   -13 54 05.47  .78320 1.6884 144.8 21.1  121   2
2021 11 27 02  04 26 10.663   -13 53 22.23  .78321 1.6884 144.8 21.1  125   2
2021 11 27 03  04 26 06.788   -13 52 38.93  .78322 1.6885 144.8 21.1  128   3
2021 11 27 04  04 26 02.914   -13 51 55.56  .78323 1.6885 144.9 21.1  132   3
2021 11 27 05  04 25 59.039   -13 51 12.12  .78325 1.6886 144.9 21.1  135   3
2021 11 27 06  04 25 55.165   -13 50 28.62  .78326 1.6887 144.9 21.1  139   4
2021 11 27 07  04 25 51.291   -13 49 45.06  .78327 1.6887 144.9 21.1  143   4
2021 11 27 08  04 25 47.416   -13 49 01.42  .78329 1.6888 144.9 21.1  146   4
2021 11 27 09  04 25 43.542   -13 48 17.73  .78330 1.6888 144.9 21.1  150   5
2021 11 27 10  04 25 39.668   -13 47 33.96  .78331 1.6889 144.9 21.1  154   5
2021 11 27 11  04 25 35.794   -13 46 50.13  .78333 1.6889 144.9 21.1  158   5
2021 11 27 12  04 25 31.920   -13 46 06.24  .78334 1.6890 144.9 21.1  162   6
2021 11 27 13  04 25 28.046   -13 45 22.28  .78336 1.6890 144.9 21.1  166   6
2021 11 27 14  04 25 24.172   -13 44 38.25  .78337 1.6891 145.0 21.1  170   7
2021 11 27 15  04 25 20.299   -13 43 54.16  .78339 1.6891 145.0 21.1  174   7
2021 11 27 16  04 25 16.425   -13 43 10.00  .78341 1.6892 145.0 21.1  178   7
2021 11 27 17  04 25 12.552   -13 42 25.78  .78342 1.6892 145.0 21.1  182   8
2021 11 27 18  04 25 08.679   -13 41 41.49  .78344 1.6893 145.0 21.1  187   8
2021 11 27 19  04 25 04.806   -13 40 57.14  .78346 1.6893 145.0 21.1  191   9
2021 11 27 20  04 25 00.933   -13 40 12.72  .78348 1.6894 145.0 21.1  195   9
2021 11 27 21  04 24 57.061   -13 39 28.24  .78349 1.6894 145.0 21.1  200  10
2021 11 27 22  04 24 53.189   -13 38 43.69  .78351 1.6895 145.0 21.1  204  10
2021 11 27 23  04 24 49.316   -13 37 59.08  .78353 1.6896 145.0 21.1  209  11
2021 11 28 00  04 24 45.445   -13 37 14.40  .78355 1.6896 145.1 21.1  214  11
2021 11 28 01  04 24 41.573   -13 36 29.66  .78357 1.6897 145.1 21.1  218  12
2021 11 28 02  04 24 37.702   -13 35 44.85  .78359 1.6897 145.1 21.1  223  12
2021 11 28 03  04 24 33.831   -13 34 59.98  .78361 1.6898 145.1 21.1  228  13
2021 11 28 04  04 24 29.960   -13 34 15.04  .78363 1.6898 145.1 21.1  233  13
2021 11 28 05  04 24 26.089   -13 33 30.04  .78365 1.6899 145.1 21.1  238  14
2021 11 28 06  04 24 22.219   -13 32 44.97  .78367 1.6899 145.1 21.1  243  15
2021 11 28 07  04 24 18.349   -13 31 59.84  .78370 1.6900 145.1 21.1  249  15
2021 11 28 08  04 24 14.480   -13 31 14.64  .78372 1.6900 145.1 21.1  254  16
2021 11 28 09  04 24 10.610   -13 30 29.38  .78374 1.6901 145.1 21.1  260  16
2021 11 28 10  04 24 06.741   -13 29 44.05  .78376 1.6901 145.1 21.1  265  17
2021 11 28 11  04 24 02.873   -13 28 58.66  .78379 1.6902 145.1 21.1  271  17
2021 11 28 12  04 23 59.005   -13 28 13.21  .78381 1.6902 145.2 21.1  277  18
2021 11 28 13  04 23 55.137   -13 27 27.69  .78383 1.6903 145.2 21.1  282  19
2021 11 28 14  04 23 51.270   -13 26 42.10  .78386 1.6903 145.2 21.1  288  19
2021 11 28 15  04 23 47.403   -13 25 56.46  .78388 1.6904 145.2 21.1  295  20
2021 11 28 16  04 23 43.536   -13 25 10.74  .78391 1.6905 145.2 21.1  301  20
2021 11 28 17  04 23 39.670   -13 24 24.97  .78393 1.6905 145.2 21.1  307  21